Regional Weather Roundup
Issued by NWS

Home | Current Version | Previous Version | Text Only | Print | Product List | Glossary On
Versions: 1 2 3 4 5 6 7 8 9 10 11 12 13 14 15 16 17 18 19 20 21 22 23 24 25 26 27
000
ASUS45 KSLC 290510
RWRUT

UTAH REGIONAL WEATHER ROUNDUP
NATIONAL WEATHER SERVICE SALT LAKE CITY UT
1100 PM MDT TUE MAR 28 2017

UTZ001>011-023>025-290600-

NORTHERN UTAH

CITY           SKY/WX    TMP DP  RH WIND       PRES   REMARKS
BRIGHAM CITY     N/A     44  28  53 N7        30.23S
HILL AFB       CLEAR     42  26  52 CALM      30.21S
LOGAN          CLEAR     39  33  79 SW6       30.23S WCI  35
OGDEN          CLEAR     40  27  59 NW6       30.21R
SALT LAKE CITY CLEAR     42  34  73 NE3       30.21R
TOOELE VALLEY  CLEAR     34  32  93 S8        30.23S WCI  27
WENDOVER       CLEAR     46  25  43 NE3       30.25S
HEBER CITY     CLEAR     36  25  64 CALM      30.19R
WEST JORDAN    CLEAR     44  37  75 W5        30.22S

$$

UTZ011>015-024>027-290600-

CENTRAL/NORTHEAST UTAH

CITY           SKY/WX    TMP DP  RH WIND       PRES   REMARKS
PROVO AIRPORT  CLEAR     45  33  63 NW20      30.21R
MOAB/CANYONLAN CLEAR     42  31  64 NW12      30.03R
DELTA          CLEAR     36  32  87 CALM      30.23S
PRICE          CLEAR     41  27  57 NW8       30.12S
RICHFIELD      PTCLDY    41  27  56 N3        30.24R
ROOSEVELT      CLEAR     39  34  81 W3        30.14R
VERNAL         CLEAR     40  30  67 SW6       30.13R

$$

UTZ013>016-019>022-027-290600-

SOUTHERN UTAH

CITY           SKY/WX    TMP DP  RH WIND       PRES   REMARKS
BRYCE CANYON   CLEAR     32  23  69 NW12      30.17R WCI  23
CEDAR CITY     CLEAR     36  27  69 N6        30.20R WCI  31
MILFORD        CLEAR     37  27  67 N9        30.22R WCI  30
ST GEORGE      CLEAR     56  25  30 VRB5      30.10R
HANKSVILLE     PTCLDY    48  25  40 NW10      30.10R
KANAB          CLEAR     46  25  42 NW12G23   30.14S
BLANDING       PTCLDY    45  28  51 NW12G28   30.01S

$$

REGIONAL REPORTS     COLORADO/ARIZONA

CITY           SKY/WX    TMP DP  RH WIND       PRES   REMARKS
CRAIG, CO      CLOUDY    37  29  72 N10       30.10R WCI  30
GRAND JUNCTION CLOUDY    46  34  62 N9        30.02R
RIFLE, CO      CLOUDY    45  33  63 NW12      30.03S
MONTROSE, CO   CLOUDY    43  35  73 N9        30.00R
CORTEZ, CO     CLOUDY    44  33  65 N7        29.91S
COLORADO CITY    N/A     43  28  56 NW6       30.15S
PAGE, AZ       CLEAR     53  22  29 NW10      30.03R
GRAND CANYON   CLEAR     32  25  75 SW5       30.09R WCI  27
KINGMAN, AZ    CLEAR     50   8  18 NE5       30.06R
FLAGSTAFF, AZ  CLEAR     39  21  48 VRB7      30.06R WCI  34

$$

REGIONAL REPORTS    NEVADA/IDAHO/WYOMING

CITY           SKY/WX    TMP DP  RH WIND       PRES   REMARKS
LAS VEGAS, NV  PTCLDY    64  24  21 N13       30.08R
ELY, NY        CLEAR     32  23  69 NW7       30.26R WCI  26
ELKO, NV       CLEAR     37  28  70 CALM      30.28S
POCATELLO, ID  CLOUDY    38  29  70 S10       30.24S WCI  31
BURLEY, ID     CLEAR     40  28  62 SW9       30.24S WCI  34
EVANSTON, WY   CLEAR     31  22  69 N10       30.22R WCI  22
ROCK SPRINGS,  CLOUDY    35  31  85 S3        30.17F
KEMMERER, WY     N/A     30  21  69 NW8       30.20S WCI  23

$$




USA.gov is the U.S. government's official web portal to all federal, state and local government web resources and services.